www.pogodaiklimat.ru

Погода и климат >> Архив погоды >> Мадагаскар >> Farafangana


ПОГОДА в Farafangana

  • Прогноз погоды в Farafangana
  • Монитор погоды в Farafangana
  • Климат города

АРХИВ ПОГОДЫ в Farafangana

Время (UTC), дата Ветер
(напр.,м/с)
 
Видим.   Явления Облачность Т
(С)
Тd
(С)
f
(%)
Тe
(С)
Тes
(С)
Комфортность P
(гПа)
Po
(гПа)
Тmin
(С)
Tmax
(С)
R
(мм)
R24
(мм)
S
(см)
09 11.08 В 8 30 км 1/1 600 м
[Cu Sc]
1027.8 1027.1
12 11.08 В 6 30 км 1/0 600 м
[]
1026.5 1025.8
15 11.08 В 8 30 км 1/1 600 м
[Cu Sc]
1027.2 1026.5
00 12.08 0 осадки на расстоянии н/о 1027.6 1026.9
03 12.08 0 осадки на расстоянии н/о 1027.8 1027.1
06 12.08 В 3 30 км осадки на расстоянии 6/6 600 м
[Cu Sc]
1028.8 1028.1
09 12.08 В 4 30 км 8/8 600 м
[Cu Sc]
1028.7 1028.0
12 12.08 В 5 35 км 1/1 600 м
[Cu Sc]
1026.3 1025.6
15 12.08 В 5 30 км 1/1 500 м
[Cu Sc]
1026.5 1025.8
00 13.08 штиль 0 30 км 1/1 500 м
[Cu Sc]
1028.4 1027.7
03 13.08 штиль 0 30 км 1/1 500 м
[Cu Sc]
1027.3 1026.6
06 13.08 С 3 35 км ясно 1028.6 1027.9
09 13.08 С 3 30 км 1/1 600 м
[Cu Sc]
1027.5 1026.8
12 13.08 С 3 35 км 1/1 700 м
[Cu Sc]
1027.0 1026.3
15 13.08 0 30 км 3/3 600 м
[Cu Sc]
1026.9 1026.2
00 14.08 0 30 км 1/1 600 м
[Cu Sc]
1026.7 1026.0
03 14.08 0 30 км 1/1 600 м
[Cu Sc]
1027.0 1026.3
06 14.08 С 3 30 км 1/1 600 м
[Cu Sc]
1027.4 1026.7
09 14.08 0 40 км 1/1 700 м
[Cu Sc]
1026.4 1025.7
12 14.08 0 40 км 3/3 700 м
[Cu Sc]
1025.8 1025.1
15 14.08 0 30 км 1/1 600 м
[Cu Sc]
1026.0 1025.3
00 15.08 0 30 км 1/1 600 м
[Cu Sc]
1026.7 1026.0
03 15.08 0 30 км 1/1 600 м
[Cu Sc]
1027.0 1026.3
06 15.08 С 3 30 км 1/1 600 м
[Cu Sc]
1027.5 1026.8
09 15.08 0 40 км 5/5 700 м
[Cu Sc]
1026.7 1026.0
12 15.08 0 35 км 1/1 700 м
[Cu Sc]
1026.0 1025.3
15 15.08 0 30 км 1/1 600 м
[Cu Sc]
1026.0 1025.3
00 16.08 0 30 км 6/6 600 м
[Cu Sc]
1025.9 1025.2
03 16.08 0 30 км 6/6 600 м
[Cu Sc]
1026.2 1025.5
06 16.08 С 3 35 км 5/5 600 м
[Cu Sc]
1027.2 1026.5
09 16.08 0 40 км 1/1 700 м
[Cu Sc]
1026.4 1025.7
12 16.08 0 40 км 4/4 700 м
[Cu Sc]
1025.1 1024.4
15 16.08 0 30 км 4/4 600 м
[Cu Sc]
1025.4 1024.7
00 17.08 0 30 км 8/8 600 м
[Cu Sc]
1024.7 1024.0
03 17.08 0 30 км 8/8 600 м
[Cu Sc]
1024.2 1023.5
06 17.08 С 4 30 км 6/6 600 м
[Cu Sc]
1024.5 1023.8
09 17.08 0 35 км 6/6 600 м
[Cu Sc]
1024.1 1023.4
12 17.08 0 35 км 3/3 700 м
[Cu Sc]
1023.5 1022.8
15 17.08 0 30 км 1/1 600 м
[Cu Sc]
1024.1 1023.4

 

Местоположение метеостанции Farafangana (Мадагаскар): широта -22.80 долгота 47.83 высота над уровнем моря 6 м.

В архиве по умолчанию представлена погода в Farafangana за последнюю неделю. Архивные данные за месяц целиком и за предыдущие месяцы, начиная с января 2011 года, Вы можете получить, выбрав интересующий диапазон дат из раскрывающегося списка и нажав кнопку "Ввод!".


*Определитесь, кто Вы:
робот инопланетянин человек

Внимание! Время в таблицах - всемирное. Для получения местного времени необходимо прибавить поправку, которая в Farafangana равна 3 ч.

Смотрите также архив погоды в соседних городах и на ближайших метеорологических станциях:

Погода в Mananjary (Мадагаскар) (145 км)
Погода в Fianarantsoa (Мадагаскар) (168 км)
Погода в Taolagnaro (Мадагаскар) (264 км)
Погода в Antsirabe (Мадагаскар) (342 км)
Погода в Mahanoro (Мадагаскар) (345 км)
Погода в Ranohira (Мадагаскар) (393 км)
Погода в Toliara (Мадагаскар) (424 км)
Погода в Antananarivo (Мадагаскар) (438 км)
Погода в Antananarivo Airport (Мадагаскар) (446 км)
Погода в Morondava (Мадагаскар) (459 км)

Пояснения к столбцам:

Ветер - указаны скорость ветра в м/с - средняя за 10 мин, порывы в срок и между сроками (в фигурных скобках) и направление, откуда дует ветер: С - северный, СВ - северо-восточный, В - восточный, ЮВ - юго-восточный, Ю - южный, ЮЗ - юго-западный, З - западный, СЗ - северо-западный.
Видимость - горизонтальная дальность видимости в метрах или километрах. При видимости от 1 до 10 км при отсутствии осадков обычно наблюдается дымка, при ухудшении видимости до 1 км и менее - туман. В сухую погоду видимость может ухудшаться дымом, пылью или мглою.
Явления - указаны атмосферные явления, наблюдавшиеся в срок или в последний час перед сроком; фигурными скобками обозначены явления, наблюдавшиеся между сроками (за 1-3 часа до срока); квадратными скобками обозначены град или гололедные отложения с указанием их диаметра в мм.
Облачность - указаны через наклонную черту общая и нижняя облачность в баллах и высота нижней границы облаков в метрах; квадратными скобками обозначены формы облаков: Ci - перистые, Cs - перисто-слоистые, Cc - перисто-кучевые, Ac - высококучевые, As - высокослоистые, Sc - слоисто-кучевые, Ns - слоисто-дождевые, Cu - кучевые, Cb - кучево-дождевые. Подробнее классификацию облаков см. в Атласе облаков (PDF).
T - Температура воздуха - температура, измеренная на высоте 2 м над землей.
Td - Температура точки росы - температура, при понижении до которой содержащийся в воздухе водяной пар достигнет насыщения.
f - Относительная влажность воздуха - влажноcть воздуха, измеренная на высоте 2 м над землей.
Te - Эффективная температура - температура, которую ощущает одетый по сезону человек в тени. Характеристика душности погоды. При расчете учитывается влияние влажности воздуха и скорости ветра на теплоощущения человека.
Tes - Эффективная температура на солнце - температура, которую ощущает человек, с поправкой на солнечный нагрев. Характеристика знойности погоды. Зависит от высоты солнца над горизонтом, облачности и скорости ветра. Ночью, в пасмурную погоду, а также при ветре 12 м/с и более поправка равна нулю.
P - Атмосферное давление - приведенное к уровню моря атмосферное давление.
Po - Атмосферное давление - измеренное на уровне метеостанции атмосферное давление.
Tmin - Минимальная температура - минимум температуры воздуха на высоте 2 м над землей.
Tmax - Максимальная температура - максимум температуры воздуха на высоте 2 м над землей.
R - Количество осадков - Количество выпавших осадков за период времени, мм. При наведении курсора мыши на число - период времени, за который выпало указанное количество осадков.
R24 - Количество осадков - Количество выпавших осадков за 24 часа, мм.
S - Снежный покров - Высота снежного покрова, см. При наведении курсора мыши на число - состояние снежного покрова и степень покрытия местности в баллах.